Find Starlink 4070

NORAD ID: 52664 Int'l Des: 2022-053 Owner: SPXS Country: US Constellation: starlink operational
LEOCIRCULAR

Live-Position

3D-Globus wird geladen...

Über Starlink 4070

Beschreibung wird geladen...

Nächste Überflüge

Passes for default location (London). Set your location on the main map for personalized predictions.

Höhenverlauf

Loading altitude history...

Zweizeiliger Elementsatz

1 52664U 22053J 26121.73848341 -.00000089 00000-0 12509-4 0 9994
2 52664 53.2183 275.9716 0001276 89.5268 270.5871 15.08840030219054
Epoch: 1. Mai 2026 • Age: 11 hours

Aktueller Status

Höhe 542.9 km
Geschwindigkeit 7.60 km/s
Subsatellitenpunkt 41.38°N, 18.19°E
Startdatum 18. Mai 2022
Alter 3.9 years
Typ internet

Technische Details

Klassifizierung Payload
Masse 297.00 kg
Trockenmasse 275.00 kg
Gesamtmasse 297.00 kg
Länge 0.20 m
Durchmesser 2.80 m
Spannweite 9.00 m
Form Box + pan
Hersteller SPXS
Bus-Typ Starlink
Phasenstatus In Orbit
Besitzer/Staat SPXS/US

Most Searched